Погода в Крещенке

Погода в Крещенке : погода сейчас, прогноз погоды и архив. Всё, что Вы хотите узнать о погоде в Крещенке!

Хотите узнать прогноз погоды в Крещенке? Тогда Вам сюда: Погода в Крещенке

Поиск расширенной информации на нашем сайте:

Другие новости

Новости СМИ2

Главная страница сайта

Новости сайта

03.07.2017

Напоминаем, что на нашем специализированном сайте Метеоцентр.Азия вы можете получить высокодетализированные автоматические прогнозы погоды по пунктам России, СНГ и мира в авиационном формате (включающие направление и скорость ветра, видимость, явления погоды, количество и форму облачности, нижнюю и верхнюю границу облачности).


Погода в Крещенке - сегодня

Время (UTC), дата Ветер
(°,м/с) 
Видим.   Явления Облачность Т
(°С)
Тd
(°С)
f(%) Тe
(°С)
Pmin
(гПа)
dP
(гПа)
Po
(мм)
O2
(г/м3)
Тmin Tmax R s Состояние
почвы
00 22.11.17 270 (З) 10 км  слаб. ливневой снег  10/10 300 м кучево-дожд. 
[Cb cap]
-1.1 -4.1 80 -4  1030.1  0.9  760  308  -1.8    0.0  15  равномерный
сухой снег
100% 
03 22.11.17 250 (З) 20000 м  в посл. час ливневой дождь [диам. гололёда 1 мм]  10/10 300 м кучево-дожд. 
[Cb cap]
-0.7 -2.3 89 -3  1031.4  1.3  761  308           
06 22.11.17 250 (З) 20000 м  {ливн. осадки} [диам. гололёда 1 мм]  10/10 300 м кучево-дожд. 
[Cb cap]
-0.6 -2.5 87 -2  1032.2  0.8  762  308           
09 22.11.17 240 (ЮЗ) 20000 м  [диам. гололёда 1 мм]  9/9 600 м 
[Sc]
-0.5 -4.2 76 -2  1032.5  0.3  762  308           
12 22.11.17 240 (ЮЗ) 20000 м    3/3 600 м 
[Sc]
-2.6 -7 72 -5  1032.5  -0.1  762  311    -0.3  0.8     
15 22.11.17 240 (ЮЗ) 20000 м    9/9 600 м 
[Sc]
-3.4 -7.2 75 -6  1032.3  -0.3  762  312           
18 22.11.17 240 (ЮЗ) 20000 м    ясно 
-4.5 -7.4 80 -6  1031.8  -0.5  761  313           
21 22.11.17 220 (ЮЗ) 20000 м    ясно 
-6.5 -9 82 -8  1031.4  -0.5  761  315           
00 23.11.17 200 (Ю) 20000 м    ясно 
-8.3 -9.8 89 -8  1030.7  -0.8  760  317  -10.6      15  равномерный
сухой снег
100% 
03 23.11.17 240 (ЮЗ) 20000 м    3/0 верхняя 
[Ci sp]
-8.6 -10.3 87 -10  1030.8  0.1  760  317           
06 23.11.17 240 (ЮЗ) 20000 м    ясно 
-3.1 -9.4 62 -5  1030.5  760  311           
09 23.11.17 250 (З) 20000 м    ясно 
-2 -8.6 61 -4  1030.1  -0.3  760  309           
12 23.11.17 240 (ЮЗ) 20000 м    ясно 
-4 -8 74 -5  1029.9  -0.4  760  312    -1.7       
15 23.11.17 250 (З) 20000 м    4/4 600 м 
[Sc]
-5.3 -8.7 77 -8  1029.8  0.1  760  313           
18 23.11.17 260 (З) 20000 м    ясно 
-6.6 -9.3 81 -8  1029.8  -0.1  760  315           
21 23.11.17 280 (З) 20000 м    ясно 
-7.5 -9.7 84 -10  1029.7  -0.2  760  316           
00 24.11.17 260 (З) 20000 м    ясно 
-7.3 -9.9 82 -10  1029.8  0.1  760  316  -8.2      15  равномерный
мокрый или
старый снег
100% 
03 24.11.17 260 (З) 20000 м    3/0 верхняя 
[Ci sp]
-8.2 -10.4 84 -11  1029.5  -0.3  759  317  -8.2         
06 24.11.17 270 (З) 20000 м    1/0 верхняя 
[Ci sp]
-3.3 -8.8 66 -5  1028.9  -0.3  759  311           
09 24.11.17 250 (З) 20000 м    ясно 
-1 -8.6 56 -3  1028.4  -0.3  759  308           
12 24.11.17 200 (Ю) 20000 м    ясно 
-4.1 -10.2 62 -4  1027.5  -1.2  758  311    -0.8       
15 24.11.17 200 (Ю) 20000 м    ясно 
-4.5 -10.6 62 -6  1025.7  -1.7  757  311           
18 24.11.17 230 (ЮЗ) 20000 м    ясно 
-4.1 -10.9 59 -4  1023.7  -2  755  310           
21 24.11.17 220 (ЮЗ) 20000 м    ясно 
-5.3 -9.5 72 -7  1021.8  -1.9  754  311           
00 25.11.17 260 (З) 20000 м    ясно 
-6.7 -10.7 73 -8  1019.4  -2.5  752  312  -6.7      15  равномерный
мокрый или
старый снег
100% 
Время (UTC), дата Ветер
(°,м/с) 
Видим.   Явления Облачность Т
(°С)
Тd
(°С)
f(%) Тe
(°С)
Pmin
(гПа)
dP
(гПа)
Po
(мм)
O2
(г/м3)
Тmin Tmax R s Состояние
почвы

Для получения пояснительной информации подведите курсор к названию столбца.

ПОГОДА в Крещенке - архив

Всё, что Вы хотите узнать о погоде в Крещенке - удобно и подробно!

Выберите нужную дату (начиная с 1 января 2015* года) и нажмите кнопку "Найти".
Будут отображены архивные сводки погоды по пункту Крещенка, начиная с указанной даты.


Отображать данные в формате CSV (для использования в таблицах Excel)


Внимание! Наш архив погоды предназначен исключительно для личного некоммерческого использования в познавательных целях. Если Вам необходимы официальные справки о состоянии погоды (для производственных, юридических, коммерческих и т.п. целей), обращайтесь в органы Росгидромета.

*Примечание: данная дата относится к архиву по метеостанциям СССР (Россия, СНГ, Балтия).
Архив по метеостанциям Зарубежной Европы и Азии (кроме Китая) хранится 10 дней, по другим регионам земного шара (Китай, Африка, Америка, Австралия, Океания) - 1 день.

Крещенка - район местоположения метеостанции


Название, широта, долгота, высота метеостанции:
Крещенка 55.9°ш. 80°д. 129 м над ур. моря [Российская Федерация]

Дополнительная информация

В oтличие oт бoльшинства пoгoдных сайтoв мы публикуем пoдрoбную метеoинфoрмацию в детальнoм прoфессиoнальнoм фoрмате.

Характеристики температуры и влажнoсти вoздуха измеряются на высoте 2 м в тени вдали oт зданий и деревьев.
Скoрoсть ветра измеряется на высoте 10 м (на урoвне рoста челoвека скoрoсть ветра ниже в 1.5-2 раза). Если метеoстанция нахoдится в гoрoде или в лесу, тo скoрoсть ветра занижена на 2-4 м/с пo сравнению с oткрытым местoм. Скoрoсть ветра над акватoриями крупных рек и oзёр, а также на вершинах хoлмoв на 2-5 м/с выше, чем в oбычных услoвиях.
Атмoсфернoе давление в разных тoчках местнoсти мoжет значительнo oтличаться oт давления на метеoстанции, в зависимoсти oт услoвий рельефа (при пoдъёме на 10 м давление пoнижается примернo на 1 мм рт.ст.).